| time (UTC) | temp F | wind direction | speed knots | gust knots | rain 1hr in | rain 24hr in | rain mn in | humidity % | barometer mb |
| 20260508001511 | 65 | 232 | 6.1 | 13.0 | 0.00 | 0.00 | 0.00 | 86 | 1013.5 |
| 20260508000009 | 66 | 267 | 6.1 | 10.4 | 0.00 | 0.00 | 0.00 | 85 | 1013.5 |
| 20260507234508 | 66 | 245 | 4.3 | 10.4 | 0.00 | 0.00 | 0.00 | 85 | 1013.6 |
| 20260507233005 | 66 | 267 | 4.3 | 11.3 | 0.00 | 0.00 | 0.00 | 86 | 1013.7 |
| 20260507231507 | 66 | 224 | 4.3 | 10.4 | 0.00 | 0.00 | 0.00 | 85 | 1013.7 |
| 20260507230005 | 65 | 273 | 5.2 | 10.4 | 0.00 | 0.00 | 0.00 | 86 | 1013.9 |
| 20260507224608 | 66 | 191 | 5.2 | 11.3 | 0.00 | 0.00 | 0.00 | 85 | 1013.9 |
| 20260507223059 | 66 | 232 | 6.1 | 11.3 | 0.00 | 0.00 | 0.00 | 85 | 1014.1 |
| 20260507221556 | 67 | 255 | 5.2 | 9.6 | 0.00 | 0.00 | 0.00 | 84 | 1014.2 |
| 20260507220055 | 67 | 257 | 6.1 | 10.4 | 0.00 | 0.00 | 0.00 | 84 | 1014.4 |
| 20260507214604 | 67 | 159 | 4.3 | 9.6 | 0.00 | 0.00 | 0.00 | 85 | 1014.6 |
| 20260507213105 | 67 | 221 | 3.5 | 8.7 | 0.00 | 0.00 | 0.00 | 82 | 1014.7 |
| 20260507211550 | 68 | 226 | 3.5 | 7.8 | 0.00 | 0.00 | 0.00 | 82 | 1014.7 |
| 20260507210052 | 68 | 150 | 2.6 | 7.8 | 0.00 | 0.00 | 0.00 | 81 | 1014.9 |
| 20260507204557 | 68 | 137 | 3.5 | 7.0 | 0.00 | 0.00 | 0.00 | 81 | 1015.0 |
| 20260507203045 | 68 | 235 | 3.5 | 7.8 | 0.00 | 0.00 | 0.00 | 81 | 1015.1 |
| 20260507201545 | 68 | 215 | 2.6 | 7.8 | 0.00 | 0.00 | 0.00 | 82 | 1015.1 |
| 20260507200042 | 68 | 200 | 4.3 | 7.8 | 0.00 | 0.00 | 0.00 | 79 | 1015.3 |
| 20260507194542 | 68 | 133 | 2.6 | 7.0 | 0.00 | 0.00 | 0.00 | 81 | 1015.4 |
| 20260507193041 | 67 | 257 | 4.3 | 8.7 | 0.00 | 0.00 | 0.00 | 82 | 1015.6 |
| 20260507191540 | 68 | 162 | 3.5 | 7.0 | 0.00 | 0.00 | 0.00 | 81 | 1015.7 |
| 20260507190042 | 68 | 259 | 2.6 | 6.1 | 0.00 | 0.00 | 0.00 | 81 | 1015.8 |
| 20260507184539 | 67 | 232 | 2.6 | 7.0 | 0.00 | 0.00 | 0.00 | 83 | 1016.0 |
| 20260507183040 | 66 | 259 | 2.6 | 6.1 | 0.00 | 0.00 | 0.00 | 84 | 1016.2 |
| 20260507181534 | 66 | 257 | 2.6 | 6.1 | 0.00 | 0.00 | 0.00 | 85 | 1016.2 |
| 20260507180036 | 66 | 255 | 3.5 | 6.1 | 0.00 | 0.00 | 0.00 | 82 | 1016.2 |
| 20260507174538 | 66 | 137 | 2.6 | 6.1 | 0.00 | 0.00 | 0.00 | 83 | 1016.2 |
| 20260507173035 | 66 | 255 | 3.5 | 7.0 | 0.00 | 0.00 | 0.00 | 85 | 1016.3 |
| 20260507171533 | 66 | 255 | 2.6 | 7.0 | 0.00 | 0.00 | 0.00 | 84 | 1016.2 |
| 20260507170034 | 66 | 226 | 2.6 | 6.1 | 0.00 | 0.00 | 0.00 | 83 | 1016.3 |
| 20260507164531 | 66 | 267 | 1.7 | 5.2 | 0.00 | 0.00 | 0.00 | 83 | 1016.3 |
| 20260507163031 | 66 | 204 | 1.7 | 4.3 | 0.00 | 0.00 | 0.00 | 82 | 1016.4 |
| 20260507161529 | 66 | 157 | 1.7 | 4.3 | 0.00 | 0.00 | 0.00 | 82 | 1016.3 |
| 20260507160030 | 66 | 208 | 0.9 | 3.5 | 0.00 | 0.00 | 0.00 | 84 | 1016.3 |
| 20260507154528 | 66 | 219 | 0.0 | 3.5 | 0.00 | 0.00 | 0.00 | 84 | 1016.5 |
| 20260507153028 | 67 | 190 | 0.9 | 2.6 | 0.00 | 0.00 | 0.00 | 81 | 1016.4 |
| 20260507151527 | 68 | 224 | 0.0 | 0.0 | 0.00 | 0.00 | 0.00 | 85 | 1016.5 |
| 20260507150024 | 67 | 225 | 0.0 | 0.0 | 0.00 | 0.00 | 0.00 | 90 | 1016.5 |
| 20260507144521 | 66 | 278 | 0.0 | 0.0 | 0.00 | 0.00 | 0.00 | 95 | 1016.4 |
| 20260507143018 | 64 | 278 | 0.0 | 0.0 | 0.00 | 0.00 | 0.00 | 96 | 1016.3 |
| 20260507141516 | 62 | 278 | 0.0 | 0.0 | 0.00 | 0.00 | 0.00 | 97 | 1016.1 |
| 20260507140017 | 62 | 278 | 0.0 | 0.0 | 0.00 | 0.00 | 0.00 | 98 | 1016.0 |
| 20260507134514 | 59 | 278 | 0.0 | 0.0 | 0.00 | 0.00 | 0.00 | 97 | 1015.9 |
| 20260507133010 | 56 | 278 | 0.0 | 0.0 | 0.00 | 0.00 | 0.00 | 97 | 1015.7 |
| 20260507131509 | 54 | 278 | 0.0 | 0.0 | 0.00 | 0.00 | 0.00 | 97 | 1015.6 |
| 20260507130009 | 54 | 278 | 0.0 | 0.0 | 0.00 | 0.00 | 0.00 | 97 | 1015.5 |
| 20260507124508 | 54 | 278 | 0.0 | 0.0 | 0.00 | 0.00 | 0.00 | 97 | 1015.5 |
| 20260507123009 | 54 | 278 | 0.0 | 0.0 | 0.00 | 0.00 | 0.00 | 97 | 1015.4 |
| 20260507121505 | 54 | 278 | 0.0 | 0.0 | 0.00 | 0.00 | 0.00 | 96 | 1015.4 |
| 20260507120003 | 55 | 278 | 0.0 | 0.0 | 0.00 | 0.00 | 0.00 | 96 | 1015.5 |
| 20260507114502 | 54 | 278 | 0.0 | 0.0 | 0.00 | 0.00 | 0.00 | 96 | 1015.5 |
| 20260507113001 | 55 | 278 | 0.0 | 0.0 | 0.00 | 0.00 | 0.00 | 96 | 1015.6 |
| 20260507111559 | 55 | 278 | 0.0 | 0.0 | 0.00 | 0.00 | 0.00 | 96 | 1015.6 |
| 20260507110058 | 55 | 278 | 0.0 | 0.0 | 0.00 | 0.00 | 0.00 | 96 | 1015.7 |
| 20260507104555 | 55 | 278 | 0.0 | 0.0 | 0.00 | 0.00 | 0.00 | 96 | 1015.8 |
| 20260507103055 | 55 | 278 | 0.0 | 0.0 | 0.00 | 0.00 | 0.00 | 96 | 1015.9 |
| 20260507101553 | 56 | 278 | 0.0 | 0.0 | 0.00 | 0.00 | 0.00 | 96 | 1015.9 |
| 20260507100051 | 56 | 278 | 0.0 | 0.0 | 0.00 | 0.00 | 0.00 | 95 | 1015.9 |
| 20260507094553 | 56 | 278 | 0.0 | 0.0 | 0.00 | 0.00 | 0.00 | 95 | 1016.0 |
| 20260507093047 | 57 | 278 | 0.0 | 0.0 | 0.00 | 0.00 | 0.00 | 95 | 1016.1 |
| 20260507091545 | 57 | 278 | 0.0 | 0.0 | 0.00 | 0.00 | 0.00 | 95 | 1016.3 |
| 20260507090044 | 56 | 278 | 0.0 | 0.0 | 0.00 | 0.00 | 0.00 | 94 | 1016.5 |
| 20260507084541 | 57 | 278 | 0.0 | 0.0 | 0.00 | 0.00 | 0.00 | 95 | 1016.6 |
| 20260507083046 | 58 | 278 | 0.0 | 0.0 | 0.00 | 0.00 | 0.00 | 95 | 1016.7 |
| 20260507081537 | 58 | 278 | 0.0 | 0.0 | 0.00 | 0.00 | 0.00 | 95 | 1016.8 |
| 20260507080035 | 58 | 278 | 0.0 | 0.9 | 0.00 | 0.00 | 0.00 | 95 | 1016.8 |
| 20260507074535 | 58 | 278 | 0.0 | 0.0 | 0.00 | 0.00 | 0.00 | 95 | 1016.8 |
| 20260507073033 | 58 | 278 | 0.0 | 0.0 | 0.00 | 0.00 | 0.00 | 95 | 1016.9 |
| 20260507071544 | 58 | 278 | 0.0 | 0.0 | 0.00 | 0.00 | 0.00 | 95 | 1016.9 |
| 20260507070030 | 59 | 278 | 0.0 | 0.0 | 0.00 | 0.00 | 0.00 | 94 | 1016.9 |
| 20260507064528 | 59 | 278 | 0.0 | 0.0 | 0.00 | 0.00 | 0.00 | 94 | 1017.1 |
| 20260507063032 | 60 | 278 | 0.0 | 0.0 | 0.00 | 0.00 | 0.00 | 94 | 1017.1 |
| 20260507061527 | 60 | 278 | 0.0 | 0.0 | 0.00 | 0.00 | 0.00 | 94 | 1017.1 |
| 20260507060025 | 60 | 278 | 0.0 | 0.0 | 0.00 | 0.00 | 0.00 | 93 | 1017.2 |
| 20260507054524 | 60 | 278 | 0.0 | 2.6 | 0.00 | 0.00 | 0.00 | 93 | 1017.1 |
| 20260507053025 | 60 | 283 | 0.9 | 4.3 | 0.00 | 0.00 | 0.00 | 93 | 1017.1 |
| 20260507051524 | 61 | 260 | 0.0 | 6.1 | 0.00 | 0.00 | 0.00 | 93 | 1017.0 |
| 20260507050023 | 61 | 263 | 0.9 | 4.3 | 0.00 | 0.00 | 0.00 | 93 | 1017.0 |
| 20260507044522 | 61 | 288 | 0.9 | 3.5 | 0.00 | 0.00 | 0.00 | 92 | 1017.0 |
| 20260507043031 | 61 | 307 | 1.7 | 6.1 | 0.00 | 0.00 | 0.00 | 91 | 1017.0 |
| 20260507041524 | 61 | 260 | 0.9 | 2.6 | 0.00 | 0.00 | 0.00 | 91 | 1016.8 |
| 20260507040020 | 61 | 257 | 0.9 | 2.6 | 0.00 | 0.00 | 0.00 | 90 | 1016.8 |
| 20260507034520 | 62 | 285 | 1.7 | 3.5 | 0.00 | 0.00 | 0.00 | 89 | 1016.6 |
| 20260507033020 | 62 | 241 | 0.9 | 2.6 | 0.00 | 0.00 | 0.00 | 89 | 1016.4 |
| 20260507031519 | 62 | 283 | 1.7 | 6.1 | 0.00 | 0.00 | 0.00 | 89 | 1016.3 |
| 20260507030019 | 62 | 264 | 0.9 | 6.1 | 0.00 | 0.00 | 0.00 | 89 | 1016.1 |
| 20260507024518 | 62 | 262 | 2.6 | 7.8 | 0.00 | 0.00 | 0.00 | 88 | 1016.0 |
| 20260507023018 | 63 | 257 | 2.6 | 7.8 | 0.00 | 0.00 | 0.00 | 87 | 1015.8 |
| 20260507021517 | 63 | 262 | 2.6 | 7.0 | 0.00 | 0.00 | 0.00 | 85 | 1015.7 |
| 20260507020016 | 64 | 309 | 3.5 | 10.4 | 0.00 | 0.00 | 0.00 | 84 | 1015.6 |
| 20260507014516 | 64 | 293 | 2.6 | 7.8 | 0.00 | 0.00 | 0.00 | 85 | 1015.5 |
| 20260507013014 | 64 | 259 | 3.5 | 12.2 | 0.00 | 0.00 | 0.00 | 85 | 1015.5 |
| 20260507011525 | 65 | 312 | 2.6 | 10.4 | 0.00 | 0.00 | 0.00 | 85 | 1015.5 |
| 20260507010013 | 65 | 255 | 7.0 | 11.3 | 0.00 | 0.00 | 0.00 | 84 | 1015.3 |
| 20260507004517 | 66 | 309 | 6.1 | 12.2 | 0.00 | 0.00 | 0.00 | 83 | 1015.3 |
| 20260507003017 | 66 | 276 | 6.1 | 13.0 | 0.00 | 0.00 | 0.00 | 83 | 1015.4 |